DW5683 Weather Reports


Display with metric or nautical units.
time (UTC)temp
F
wind
direction
speed
MPH
gust
MPH
rain 1hr
in
rain 24hr
in
rain mn
in
humidity
%
barometer
mb
20260507114543 54 0 0.0 0.0 0.00 0.00 0.00 92 1017.4
20260507113039 54 0 0.0 0.0 0.00 0.00 0.00 92 1017.4
20260507111538 54 0 0.0 0.0 0.00 0.00 0.00 92 1017.4
20260507110038 54 0 0.0 0.0 0.00 0.00 0.00 92 1017.4
20260507104534 54 0 0.0 0.0 0.00 0.00 0.00 92 1017.3
20260507103039 54 0 0.0 0.0 0.00 0.00 0.00 92 1017.4
20260507101545 54 0 0.0 0.0 0.00 0.00 0.00 92 1017.4
20260507100038 54 0 0.0 0.0 0.00 0.00 0.00 92 1017.4
20260507094537 54 0 0.0 0.0 0.00 0.00 0.00 92 1017.5
20260507093039 55 0 0.0 0.0 0.00 0.00 0.00 92 1017.6
20260507091542 55 0 0.0 0.0 0.00 0.00 0.00 91 1017.4
20260507090042 55 0 0.0 0.0 0.00 0.00 0.00 92 1017.6
20260507084538 55 0 0.0 0.0 0.00 0.00 0.00 91 1017.5
20260507083046 56 0 0.0 0.0 0.00 0.00 0.00 91 1017.7
20260507081536 56 0 0.0 0.0 0.00 0.00 0.00 91 1017.7
20260507080042 56 0 0.0 0.0 0.00 0.00 0.00 91 1017.7
20260507074544 57 0 0.0 0.0 0.00 0.00 0.00 90 1017.7
20260507073039 57 0 0.0 0.0 0.00 0.00 0.00 90 1017.6
20260507071556 58 0 0.0 0.0 0.00 0.00 0.00 90 1017.7
20260507070038 59 0 0.0 0.0 0.00 0.00 0.00 89 1017.6
20260507064537 59 0 0.0 0.0 0.00 0.00 0.00 89 1017.5
20260507063039 60 0 0.0 0.0 0.00 0.00 0.00 88 1017.5
20260507061536 60 0 0.0 0.0 0.00 0.00 0.00 88 1017.5
20260507060043 60 0 0.0 0.0 0.00 0.00 0.00 87 1017.5
20260507054543 61 0 0.0 0.0 0.00 0.00 0.00 86 1017.5
20260507053042 61 0 0.0 0.0 0.00 0.00 0.00 87 1017.4
20260507051537 60 0 0.0 3.0 0.00 0.00 0.00 88 1017.3
20260507050035 61 0 0.0 0.0 0.00 0.00 0.00 87 1017.1
20260507044534 61 0 0.0 0.0 0.00 0.00 0.00 86 1016.9
20260507043039 62 0 0.0 0.0 0.00 0.00 0.00 85 1016.8
20260507041538 63 0 0.0 0.0 0.00 0.00 0.00 83 1016.6
20260507040048 64 0 0.0 0.0 0.00 0.00 0.00 81 1016.4
20260507034540 65 0 0.0 0.0 0.00 0.00 0.00 79 1016.4
20260507033038 66 0 0.0 0.0 0.00 0.00 0.00 77 1016.2
20260507031539 68 0 0.0 0.0 0.00 0.00 0.00 74 1016.2
20260507030038 70 0 0.0 0.0 0.00 0.00 0.00 70 1016.0
20260507024538 71 0 0.0 0.0 0.00 0.00 0.00 67 1016.0
20260507023037 72 0 0.0 0.0 0.00 0.00 0.00 64 1016.1
20260507021536 72 0 0.0 1.0 0.00 0.00 0.00 64 1016.0
20260507020035 72 0 0.0 0.0 0.00 0.00 0.00 64 1016.0
20260507014532 72 0 0.0 2.0 0.00 0.00 0.00 64 1016.1
20260507013038 72 0 0.0 0.0 0.00 0.00 0.00 64 1016.2
20260507011540 72 0 0.0 0.0 0.00 0.00 0.00 65 1016.3
20260507010038 72 192 0.0 1.0 0.00 0.00 0.00 65 1016.4
20260507004540 72 0 0.0 4.0 0.00 0.00 0.00 64 1016.5
20260507003035 72 0 0.0 3.0 0.00 0.00 0.00 66 1016.5
20260507001547 72 196 0.0 5.0 0.00 0.00 0.00 65 1016.6
20260507000040 72 196 1.0 4.0 0.00 0.00 0.00 66 1016.6
20260506234544 72 0 0.0 6.0 0.00 0.00 0.00 65 1016.7
20260506233038 71 0 0.0 5.0 0.00 0.00 0.00 64 1016.8
20260506231537 71 0 1.0 5.0 0.00 0.00 0.00 65 1017.0
20260506230035 71 194 0.0 5.0 0.00 0.00 0.00 65 1017.2
20260506224543 72 194 1.0 6.0 0.00 0.00 0.00 65 1017.4
20260506223041 72 0 0.0 6.0 0.00 0.00 0.00 65 1017.6
20260506221538 71 194 1.0 3.0 0.00 0.00 0.00 65 1017.8
20260506220042 72 194 0.0 5.0 0.00 0.00 0.00 65 1018.2
20260506214537 71 194 1.0 6.0 0.00 0.00 0.00 65 1018.4
20260506213035 70 0 0.0 5.0 0.00 0.00 0.00 66 1018.4
20260506211540 69 0 0.0 4.0 0.00 0.00 0.00 65 1018.6
20260506210038 69 0 0.0 3.0 0.00 0.00 0.00 67 1018.8
20260506203101 69 0 2.0 5.0 0.00 0.00 0.00 67 1019.1
20260506201539 68 181 0.0 4.0 0.00 0.00 0.00 70 1019.1
20260506200046 69 0 0.0 4.0 0.00 0.00 0.00 69 1019.2
20260506194536 68 0 0.0 4.0 0.00 0.00 0.00 70 1019.2
20260506193035 68 0 0.0 4.0 0.00 0.00 0.00 67 1019.5
20260506191534 68 175 1.0 6.0 0.00 0.00 0.00 70 1019.7
20260506190046 68 173 0.0 6.0 0.00 0.00 0.00 70 1020.0
20260506184548 68 168 1.0 6.0 0.00 0.00 0.00 71 1020.0
20260506183034 68 0 1.0 5.0 0.00 0.00 0.00 71 1020.1
20260506181534 67 164 0.0 4.0 0.00 0.00 0.00 74 1020.1
20260506180039 65 0 0.0 2.0 0.00 0.00 0.00 76 1020.1
20260506174537 64 0 0.0 2.0 0.00 0.00 0.00 76 1020.0
20260506173047 63 0 0.0 2.0 0.00 0.00 0.00 76 1020.1
20260506171538 63 0 0.0 2.0 0.00 0.00 0.00 79 1020.0
20260506170036 62 0 0.0 0.0 0.00 0.00 0.00 79 1020.0
20260506164536 62 0 0.0 0.0 0.00 0.00 0.00 80 1020.1
20260506163055 61 0 0.0 0.0 0.00 0.00 0.00 81 1020.0
20260506161538 60 0 0.0 0.0 0.00 0.00 0.00 81 1020.0
20260506160038 60 0 0.0 0.0 0.00 0.00 0.00 83 1019.9
20260506154543 60 0 0.0 0.0 0.00 0.00 0.00 84 1019.9
20260506153034 59 0 0.0 0.0 0.00 0.00 0.00 85 1019.9
20260506151540 59 0 0.0 0.0 0.00 0.00 0.00 86 1019.9
20260506150038 58 0 0.0 0.0 0.00 0.00 0.00 86 1019.7
20260506144537 57 0 0.0 0.0 0.00 0.00 0.00 86 1019.8
20260506143039 57 0 0.0 0.0 0.00 0.00 0.00 86 1019.8
20260506141535 57 0 0.0 0.0 0.00 0.00 0.00 87 1019.7
20260506140037 57 0 0.0 0.0 0.00 0.00 0.00 87 1019.5
20260506134538 56 0 0.0 0.0 0.00 0.00 0.00 87 1019.4
20260506133038 56 0 0.0 0.0 0.00 0.00 0.00 87 1019.3
20260506131539 56 0 0.0 0.0 0.00 0.00 0.00 86 1019.3
20260506130040 56 0 0.0 0.0 0.00 0.00 0.00 86 1019.1
20260506124535 56 0 0.0 0.0 0.00 0.00 0.00 86 1019.1
20260506123036 56 0 0.0 0.0 0.00 0.00 0.00 86 1018.9
20260506121532 56 0 0.0 0.0 0.00 0.00 0.00 86 1018.8
20260506120040 56 0 0.0 0.0 0.00 0.00 0.00 86 1018.7